Location: Valley Falls
(35.0169°N, 81.9753°W)
Time: 22:09:00
(UTC+00:00)

N. Korean satellite - Pass Details

Date: 02 December 2022
Orbit: 407 x 442 km, 97.3° (Epoch: 05 February)

Event Time Altitude Azimuth Distance (km) Brightness Sun altitude
Rises 11:00:06 0° 4° (N) 2,514 10.1 -15.8°
Reaches altitude 10° 11:02:13 10° 358° (N) 1,628 9.0 -15.4°
Maximum altitude 11:05:35 46° 285° (WNW) 634 6.7 -14.7°
Drops below altitude 10° 11:08:52 10° 211° (SSW) 1,592 9.0 -14.1°
Sets 11:10:55 0° 205° (SSW) 2,450 10.1 -13.6°
